Wind_Speed
39 40 50 58 59 57 57 56 56 55 53 52 51 49 48 48 48 49 50 51 52 52 51 51 51 51 51 51 51 51 51 50 50 50 50 50 50 50 50 50 50 50 50 51 52 53 53 54 55 56 57 59 61 64 67 69 70 70 71 70 69 66 64 63 64 66 67 66 65 65 66 66 67 67 68 69 69 69 69 69 68 67 67 66 66
52 50 54 60 61 58 58 59 59 57 56 54 53 52 51 50 50 50 50 51 51 52 51 52 52 53 53 52 52 53 54 54 54 54 53 53 53 53 53 53 52 52 52 52 52 54 55 55 56 57 58 59 60 62 64 67 70 72 73 72 72 71 69 67 65 65 67 69 69 68 67 67 68 69 68 69 69 69 70 70 70 71 71 70 70
57 60 63 65 64 61 59 61 61 59 57 56 55 54 53 53 53 53 52 51 51 52 51 52 52 52 53 54 54 54 55 55 56 56 57 57 57 56 56 55 55 55 54 54 55 55 56 57 58 58 59 60 61 62 63 65 67 70 73 74 75 74 74 73 70 67 66 68 71 72 71 69 69 70 70 70 70 70 69 69 69 69 70 70 70
55 58 61 62 61 59 58 58 59 57 56 56 55 54 54 53 54 54 54 54 54 53 53 54 53 52 53 54 54 55 56 56 57 57 58 60 60 60 59 58 58 59 58 58 58 58 58 58 59 60 61 62 63 63 64 65 66 68 70 72 74 76 76 76 75 73 71 69 69 72 74 74 72 71 71 72 72 72 72 71 71 70 69 69 69
53 55 56 56 56 55 55 55 55 54 55 55 54 53 52 53 53 53 53 55 56 54 54 54 55 55 54 55 55 55 55 55 56 58 59 60 61 61 62 62 62 62 62 61 61 61 61 60 61 62 62 63 64 65 65 66 67 68 69 70 72 73 75 77 77 77 76 75 72 71 73 76 77 76 74 73 73 73 72 72 73 73 73 73 73
52 53 54 53 52 53 53 53 52 52 53 54 52 51 51 50 46 44 46 49 53 53 48 44 45 49 52 54 56 56 56 57 58 60 61 61 62 62 62 64 65 65 65 65 64 64 64 64 64 64 64 65 66 66 67 67 67 68 69 71 72 73 74 75 77 77 78 78 77 76 74 75 77 79 80 78 77 76 75 73 72 72 72 72 73
53 53 53 53 52 52 53 53 52 51 52 52 51 49 48 44 39 39 42 44 46 48 47 43 43 45 46 48 51 52 54 57 59 62 64 64 64 63 63 63 65 66 67 67 67 67 67 67 67 67 67 68 68 68 68 69 69 69 70 71 72 73 75 75 76 77 78 79 79 79 79 77 77 78 80 81 81 81 80 80 79 77 75 74 74
53 53 54 54 54 54 54 54 54 53 52 52 51 49 48 44 41 43 45 45 42 41 44 46 49 51 49 46 44 41 40 45 53 60 65 67 66 66 66 65 66 66 67 68 69 70 70 70 70 70 70 70 70 70 70 71 71 71 71 71 72 73 74 76 77 77 78 79 80 81 81 81 81 80 79 80 81 82 82 82 83 84 84 83 82
54 54 54 55 55 55 55 55 55 55 54 53 53 51 51 50 49 50 51 51 46 40 39 43 48 53 54 50 45 38 34 38 48 55 61 65 66 66 67 68 68 67 67 68 69 70 72 73 73 72 73 73 73 72 73 73 73 73 73 73 73 74 74 75 77 78 78 79 80 82 83 84 85 85 83 82 81 81 82 82 82 83 85 86 87
55 55 55 56 57 57 57 57 56 56 56 56 55 55 54 54 54 55 56 56 53 48 44 44 46 50 54 54 49 45 43 45 49 53 57 61 64 66 66 68 69 69 69 70 70 71 72 74 74 75 75 76 76 75 75 75 75 76 76 76 75 76 76 76 77 78 79 80 81 82 83 84 86 87 87 87 86 84 83 83 83 83 84 84 86
56 57 57 57 58 58 58 58 58 58 58 58 58 58 58 57 57 58 60 61 61 59 55 53 52 50 50 52 53 53 53 55 57 59 60 61 63 65 66 67 69 70 72 73 74 74 74 75 75 76 77 77 78 78 78 78 78 78 78 78 78 78 78 78 78 79 79 80 81 82 83 84 86 87 88 89 90 89 88 87 86 86 86 85 85
59 59 59 59 60 60 60 60 60 61 61 61 61 61 61 61 61 61 62 64 66 65 62 60 61 60 57 55 57 59 61 62 63 64 64 66 67 67 65 65 67 69 70 73 75 76 76 76 76 77 78 79 79 79 79 80 81 81 81 81 81 81 80 80 80 81 81 81 81 82 83 84 85 87 87 88 88 89 90 91 90 90 89 89 88
62 62 62 62 62 62 62 63 63 63 64 64 64 65 65 65 65 64 65 66 67 67 66 65 65 67 67 65 63 64 66 67 68 68 69 72 73 71 68 65 65 68 70 72 74 75 76 78 79 79 79 80 81 81 81 81 82 83 83 84 84 83 83 83 83 83 83 83 83 83 84 84 85 86 87 88 88 88 89 90 91 91 91 91 91
65 65 65 65 65 65 65 65 65 65 66 66 67 67 68 68 68 68 68 68 69 69 69 69 68 69 71 71 69 69 70 71 72 74 75 77 78 78 75 71 70 72 74 75 76 76 76 78 80 81 82 82 83 83 84 84 85 85 85 85 85 86 86 86 87 87 87 86 86 86 86 86 86 87 88 88 88 88 89 89 89 90 90 91 92
67 67 68 68 68 67 67 67 67 67 67 68 68 69 69 70 71 71 71 71 71 71 71 71 71 71 72 73 73 72 71 73 76 80 82 84 84 83 81 79 78 78 78 78 79 79 79 79 79 81 81 82 83 84 85 86 87 88 88 87 87 87 88 89 90 90 90 90 89 89 90 90 90 90 90 91 90 90 90 89 90 90 90 91 91
70 69 70 70 70 69 69 69 69 69 69 69 69 69 70 70 71 72 72 73 72 72 72 72 72 73 73 74 73 72 73 75 79 82 85 86 85 84 82 82 82 81 80 80 80 81 82 82 82 82 82 82 82 83 84 85 87 88 89 90 90 90 90 91 92 92 92 92 92 93 93 93 94 94 94 94 94 94 93 92 92 92 92 91 92
72 71 72 72 72 71 71 70 70 70 70 70 70 70 70 70 71 71 72 73 73 73 73 73 73 73 73 73 72 72 74 77 79 81 83 84 84 84 83 82 83 83 82 82 81 81 82 83 84 84 84 83 83 83 84 85 86 87 88 89 90 91 92 93 94 94 94 94 95 95 95 96 97 97 98 98 98 98 97 96 96 96 95 93 93
74 74 74 73 73 73 72 72 72 71 71 71 71 71 70 70 71 71 71 72 73 73 74 74 74 72 72 72 73 74 76 78 79 80 80 81 83 83 83 82 83 83 83 82 82 83 83 83 84 85 85 84 84 84 85 86 86 87 87 88 89 90 92 93 94 95 96 96 97 97 97 98 98 99 100 100 100 101 100 99 100 100 98 97 97
76 76 75 75 74 74 74 73 73 73 73 73 73 73 72 72 71 71 71 72 73 74 74 74 73 72 72 74 75 77 77 78 78 79 80 81 83 83 83 83 82 82 82 82 82 83 83 84 84 84 85 84 84 85 86 87 87 88 88 88 88 89 90 91 92 93 94 96 97 99 99 100 101 101 102 102 102 103 102 102 102 102 101 101 100
77 77 77 76 76 75 75 74 74 74 74 74 74 75 74 74 73 73 73 73 74 75 74 73 73 73 73 75 77 77 78 78 78 79 81 82 83 84 84 83 82 82 82 82 82 83 84 84 84 84 84 85 85 86 87 87 88 88 89 89 89 89 90 90 90 91 92 93 95 97 98 100 101 102 103 104 105 105 105 104 104 104 103 103 103
77 78 77 77 77 77 76 76 76 75 75 75 76 76 76 75 75 75 75 75 75 75 73 72 72 73 74 75 76 76 77 77 78 79 81 82 82 83 83 83 82 82 82 83 83 83 84 84 84 84 85 85 86 86 87 87 88 88 90 90 90 90 90 90 90 91 91 92 92 93 95 96 98 100 101 103 105 106 107 107 107 106 105 105 105
77 77 77 77 77 77 77 76 77 77 77 77 77 77 77 76 75 75 76 76 76 74 71 71 72 74 75 75 75 74 75 76 78 79 80 80 80 81 81 81 81 81 81 82 82 83 83 83 83 83 84 85 85 86 86 86 87 88 89 90 91 91 91 91 90 90 91 91 91 92 92 93 94 95 96 98 100 103 105 106 107 108 108 108 107
74 74 74 75 75 75 75 75 76 78 78 77 76 76 76 75 75 75 76 76 76 73 71 71 74 76 75 74 73 73 74 76 77 77 77 78 78 79 80 79 79 79 79 80 81 81 81 82 81 82 83 83 83 84 84 85 86 87 88 89 89 90 90 90 90 90 90 90 90 90 91 91 92 92 92 93 95 96 98 100 102 104 106 108 108
70 70 71 71 71 71 72 74 75 76 76 75 74 73 73 73 73 74 73 73 74 72 71 72 74 73 72 72 72 72 72 73 73 73 73 73 74 75 76 77 77 77 77 78 78 79 79 80 80 80 80 81 81 82 82 83 84 85 85 86 87 88 88 88 88 88 87 87 87 88 88 89 89 90 90 91 92 92 93 94 95 97 100 102 104
66 67 67 68 69 70 71 72 72 72 71 70 69 69 69 69 70 70 70 70 71 70 68 69 69 68 68 69 69 69 68 67 67 68 68 69 70 71 72 72 73 73 74 74 75 76 76 77 78 78 78 78 79 80 80 81 82 82 83 84 84 84 85 85 85 84 84 84 84 84 84 85 85 86 87 88 89 90 90 90 90 91 92 94 96
64 64 64 65 67 69 69 68 68 67 67 66 66 65 65 64 65 66 67 67 67 65 64 65 65 64 64 65 66 65 64 63 63 65 66 66 66 67 67 67 68 68 69 69 70 71 72 73 73 74 74 75 76 76 77 78 78 79 79 80 80 81 81 81 80 80 80 80 80 80 80 80 81 82 83 84 86 87 87 87 86 86 86 87 88
61 61 62 64 66 66 65 65 65 65 64 64 64 62 61 62 63 64 64 63 62 62 62 62 62 61 61 61 61 61 60 60 61 62 62 61 62 63 63 64 64 65 65 66 66 67 67 68 69 69 70 70 71 71 72 72 73 73 74 75 75 75 76 76 77 77 76 76 76 77 77 77 78 79 80 81 81 82 82 81 81 80 80 80 80
60 61 62 63 63 62 63 63 63 62 61 60 60 60 60 60 60 60 60 59 59 60 60 59 59 58 58 57 57 57 57 57 58 58 57 58 59 60 60 60 61 62 62 63 63 64 64 65 65 65 65 65 65 65 65 65 66 66 66 67 67 68 69 69 70 70 70 70 70 70 71 72 73 74 76 76 76 76 75 74 74 73 72 72 72
59 60 60 60 60 60 61 61 60 58 57 57 58 59 58 57 57 56 57 57 56 56 56 56 56 55 54 53 54 54 54 54 54 54 55 55 56 57 57 58 58 58 59 60 60 61 61 61 61 61 61 61 60 60 59 58 58 58 58 59 59 60 61 61 61 61 61 61 61 62 64 66 68 70 71 71 71 71 70 69 68 67 66 65 65
57 57 57 57 58 59 58 57 56 55 55 55 56 56 56 54 54 54 54 53 52 52 52 53 52 50 49 49 50 50 50 51 51 52 52 52 53 54 54 55 55 55 56 56 57 57 57 58 57 57 58 57 57 56 54 53 53 53 53 54 54 55 55 55 55 54 55 56 57 59 61 63 65 66 67 67 67 66 65 64 63 62 60 59 59
54 54 55 55 56 56 55 54 53 54 54 53 53 53 52 51 50 50 50 49 49 48 49 49 48 47 45 45 46 46 47 47 48 48 49 49 50 50 51 51 52 52 52 53 53 54 54 54 54 55 55 54 52 51 50 50 50 50 50 51 51 51 51 51 51 52 53 54 55 57 58 60 61 62 63 63 62 62 61 59 58 57 56 55 55
51 52 53 53 53 53 52 51 51 51 51 50 49 49 49 48 47 47 46 46 46 46 46 46 45 44 43 43 44 45 46 46 47 47 47 47 47 48 48 48 48 49 49 50 50 51 52 53 53 52 51 50 49 48 48 48 48 49 49 49 49 49 49 49 50 50 50 51 52 53 54 55 56 57 58 58 57 58 57 56 55 54 54 53 53
51 51 50 49 50 50 50 50 49 48 47 47 47 47 46 45 45 44 44 44 45 45 45 45 44 44 44 44 45 46 46 46 46 46 46 46 46 46 46 46 46 47 48 48 49 50 51 51 51 50 49 48 47 46 46 47 47 47 47 47 47 48 47 46 46 46 47 47 48 48 48 49 49 50 51 51 51 51 51 50 49 49 49 49 50
49 48 48 48 49 49 49 48 47 45 45 44 45 45 44 43 43 43 43 44 44 44 44 45 45 45 45 45 45 46 46 45 45 45 45 45 45 45 45 45 46 47 48 49 49 50 50 49 49 47 46 45 44 45 45 45 44 43 43 43 43 43 42 41 41 41 41 42 42 42 42 43 43 43 44 44 44 44 44 44 43 43 44 44 45
47 46 46 47 48 48 48 47 45 43 42 42 43 43 43 43 43 43 43 43 43 44 44 44 44 44 44 44 44 44 44 44 44 44 44 44 44 44 45 46 47 48 48 49 49 49 49 48 47 45 44 43 43 43 42 41 39 38 38 37 37 36 35 35 35 35 35 35 36 36 37 37 37 38 38 39 39 39 39 38 38 39 39 39 39
44 44 45 47 47 47 47 46 44 42 42 41 42 42 42 42 42 42 42 42 42 42 42 41 41 41 41 41 41 41 41 41 41 42 42 42 43 43 44 45 46 47 47 47 47 47 47 45 43 42 41 40 40 38 36 35 33 33 32 31 30 30 30 30 30 30 31 31 32 32 33 33 33 34 35 35 34 34 34 34 34 34 34 34 35
44 44 45 46 46 46 46 45 43 43 42 41 41 41 41 41 41 40 40 40 39 39 39 38 38 37 37 37 38 38 38 38 38 39 39 40 41 42 43 43 44 44 44 45 45 44 42 40 38 37 36 35 33 32 30 29 28 27 26 26 26 26 26 26 27 28 28 29 29 30 30 30 30 31 31 31 30 30 30 30 30 30 30 30 31
43 44 44 45 45 45 44 43 43 42 42 41 41 40 40 39 39 38 38 38 37 37 36 35 35 35 35 34 35 35 35 36 36 36 37 38 38 39 39 39 40 40 40 41 40 39 36 34 32 31 30 29 28 27 26 25 23 23 23 23 23 23 24 24 25 26 26 26 27 27 27 27 27 27 27 27 27 26 26 26 26 27 27 27 27
43 43 44 44 43 43 42 42 41 40 39 39 39 38 37 37 37 36 36 36 35 34 33 33 32 32 33 33 33 33 33 33 33 33 34 34 34 35 35 35 35 36 36 36 34 32 29 28 28 27 25 25 25 24 24 22 21 21 21 21 21 22 23 23 23 24 24 24 24 24 25 25 25 25 25 25 25 25 24 24 24 24 24 24 24
42 42 42 42 41 41 40 39 38 37 37 36 35 35 34 34 34 33 33 32 32 31 31 30 30 30 30 30 30 30 30 29 29 29 30 30 30 31 31 31 32 32 32 31 29 26 25 25 24 23 23 23 23 23 22 21 20 20 20 20 20 21 21 21 21 22 22 23 23 23 23 23 23 23 23 23 23 23 23 22 22 22 22 22 22
41 41 41 40 39 39 38 37 36 35 34 33 33 32 31 31 30 29 28 28 28 27 27 27 27 27 27 26 26 26 26 25 26 26 26 27 27 28 28 28 29 29 28 27 24 22 22 22 21 21 21 22 22 21 21 20 19 18 18 19 19 19 20 20 21 21 21 21 22 22 22 21 21 21 21 21 21 21 20 20 20 20 20 19 19
40 40 39 38 38 37 37 36 34 33 32 31 30 29 28 27 26 25 24 24 24 24 24 24 23 23 23 23 23 23 23 23 23 24 24 25 25 25 26 26 27 26 25 23 21 20 19 20 20 20 21 20 20 19 19 18 18 17 17 18 18 19 19 19 19 19 19 20 20 20 19 19 19 19 19 19 19 18 18 18 18 18 18 17 17
39 39 38 37 37 36 35 34 32 31 30 29 27 26 25 24 23 22 22 22 22 22 21 21 21 21 21 21 21 21 22 22 22 23 24 24 24 24 25 26 26 24 23 21 19 18 18 19 20 20 20 19 18 18 17 17 17 17 17 18 18 18 17 17 17 18 18 18 18 17 17 17 17 17 17 17 17 17 17 17 17 16 16 16 16
38 37 37 37 36 35 34 33 31 30 28 27 26 25 24 22 22 21 21 21 21 20 20 21 21 21 21 21 21 21 21 21 22 23 24 24 24 24 24 25 24 23 21 20 19 18 18 19 20 19 19 18 17 16 16 17 17 17 18 18 18 17 16 16 16 16 16 15 15 15 15 15 15 16 16 16 16 16 16 16 16 16 15 15 15
36 36 36 35 35 34 33 32 30 28 28 26 25 24 23 22 21 21 20 20 20 21 21 22 22 22 22 21 21 21 22 23 23 24 24 24 23 23 24 24 23 22 21 19 18 18 19 20 19 19 18 17 16 16 17 18 18 18 18 17 16 15 14 14 14 14 14 14 14 14 14 14 14 15 15 15 15 16 16 16 16 16 16 16 16
34 34 34 34 34 33 32 31 29 28 27 26 26 25 24 23 22 21 21 21 21 22 23 23 24 24 23 23 23 23 24 24 25 25 24 23 23 23 23 23 23 21 20 19 18 19 20 20 19 19 18 18 17 17 17 18 17 17 17 16 15 14 13 13 13 13 13 13 13 14 13 13 13 14 14 14 15 15 15 15 15 15 15 15 16
33 33 33 33 32 32 31 30 29 28 28 27 26 26 25 24 24 23 23 23 23 24 24 25 25 25 25 25 25 25 25 25 26 26 24 23 23 23 24 24 23 22 20 19 19 20 21 21 20 19 19 19 18 18 17 17 17 17 16 15 14 14 13 13 13 14 13 13 13 13 12 12 12 13 13 13 13 13 13 13 13 13 14 14 15
32 32 32 31 31 30 30 29 29 28 28 27 27 27 26 26 26 25 25 25 25 26 26 27 27 26 26 27 27 26 26 26 27 26 25 24 24 24 24 24 24 22 21 20 20 21 22 22 21 20 20 20 19 18 16 16 16 16 16 16 15 14 14 14 13 13 13 13 13 12 11 11 11 11 11 12 12 11 11 11 11 11 11 12 13
31 31 31 31 30 30 30 30 29 29 29 28 28 28 28 28 28 27 27 27 28 28 28 29 29 28 29 29 28 28 27 27 27 28 27 27 26 25 25 25 25 24 22 21 21 21 23 23 22 21 21 21 20 18 17 16 16 16 16 16 15 14 14 14 13 13 13 13 12 10 9 9 9 10 10 10 10 9 9 8 8 8 9 9 10
31 30 30 30 30 30 30 31 31 31 31 30 30 30 30 30 30 30 30 30 30 30 31 31 31 31 32 31 30 28 27 27 29 30 31 30 28 27 26 27 27 25 23 22 22 22 24 24 24 23 23 22 21 20 18 17 17 17 17 17 16 15 15 15 14 13 13 13 12 10 8 8 9 9 9 9 8 7 7 7 7 7 7 8 8
31 31 31 31 31 32 32 32 33 33 33 33 33 33 32 32 32 32 32 33 32 33 33 33 34 34 34 32 30 28 27 29 32 35 35 33 30 27 27 28 29 27 25 24 23 24 25 26 26 25 25 24 23 22 20 19 18 18 17 17 17 16 16 16 15 14 14 14 13 11 9 8 8 9 8 8 7 6 5 6 6 6 6 7 7
Wind_Direction
248 262 270 269 267 266 266 265 264 262 261 260 258 258 258 258 258 258 259 260 260 260 260 260 260 259 258 257 256 256 255 255 255 255 254 253 252 251 250 250 249 248 248 249 248 248 248 246 244 244 244 244 244 244 244 244 244 245 246 248 249 247 244 240 237 237 238 241 242 243 244 244 244 244 245 245 246 247 248 250 251 253 254 255 257
244 245 252 260 264 266 266 266 265 263 262 261 260 260 259 258 258 258 259 260 260 260 259 259 259 259 259 259 258 257 256 256 255 255 255 254 253 252 251 251 250 250 249 249 248 248 248 248 246 245 244 244 244 244 244 244 244 245 246 247 248 249 248 247 244 240 237 238 240 241 242 244 245 246 246 247 248 248 249 251 252 253 255 256 257
250 248 250 256 263 265 264 264 264 264 263 262 261 261 260 259 259 259 259 259 260 261 261 260 260 260 260 260 259 258 258 257 257 256 255 255 254 253 253 252 251 251 250 249 249 248 247 248 247 247 246 245 244 244 244 245 245 245 246 246 247 249 249 249 249 247 242 238 237 238 240 241 243 245 246 247 248 250 251 252 253 254 255 256 257
255 254 255 257 260 262 262 263 265 265 265 263 262 262 261 260 259 259 258 258 259 261 262 263 263 262 262 261 260 259 259 258 258 258 257 256 256 255 254 253 252 251 251 250 249 249 248 248 248 247 247 246 246 245 245 245 245 245 246 246 247 248 249 250 251 251 249 245 240 237 238 239 240 241 243 244 246 248 250 252 253 254 254 255 255
259 259 259 260 261 262 262 262 263 264 264 264 263 262 261 260 261 261 260 259 258 258 261 263 265 266 265 263 262 261 261 260 260 259 259 258 257 256 254 253 252 251 251 250 250 250 249 249 249 248 248 247 247 247 247 246 246 245 246 246 247 248 248 249 250 251 252 252 249 244 240 239 239 240 241 241 242 244 245 247 248 250 252 253 254
262 261 261 262 262 262 263 262 262 262 263 263 262 261 260 260 261 262 263 262 259 257 256 259 263 266 266 263 262 261 260 260 260 260 259 258 258 257 256 254 253 252 251 251 250 250 250 249 249 249 248 248 248 248 248 248 248 247 247 247 247 248 248 248 249 251 252 252 253 251 248 244 241 241 241 242 242 242 243 244 245 246 247 248 249
264 263 262 262 261 261 261 261 261 261 261 262 262 261 260 258 255 256 258 260 260 255 251 249 247 250 256 258 260 261 261 261 261 259 257 256 256 256 256 255 254 253 252 251 251 250 250 250 250 249 249 249 248 248 248 248 249 249 249 249 248 248 248 249 249 250 251 252 253 253 253 251 248 245 243 243 244 244 244 244 245 246 247 248 248
264 264 263 263 262 261 260 259 260 259 259 260 260 259 257 252 247 248 251 255 257 253 249 247 244 243 247 253 256 259 263 264 262 259 256 254 254 254 254 255 255 254 252 251 251 251 250 250 250 250 250 250 249 249 249 249 249 249 249 249 250 249 249 249 249 249 250 251 252 253 253 254 253 252 249 246 245 245 245 245 245 246 247 249 250
263 263 262 262 262 262 261 260 260 259 259 258 257 257 255 251 247 246 249 253 253 249 248 249 247 244 245 249 250 247 247 252 257 259 259 257 254 253 252 253 253 253 252 251 251 251 251 251 250 250 250 250 250 250 250 250 250 250 249 249 250 250 250 250 250 250 250 251 251 252 252 253 254 254 254 252 250 248 248 247 247 247 247 247 248
264 263 263 263 262 262 262 262 261 261 260 259 258 257 255 253 250 248 251 252 250 250 252 249 246 244 244 246 246 241 238 241 248 255 257 258 257 255 252 252 252 253 254 254 253 252 252 251 251 250 250 250 250 250 251 251 251 251 251 250 250 250 250 250 251 251 251 251 252 252 252 253 253 253 254 254 254 253 252 250 249 249 249 249 249
265 265 265 265 265 264 264 263 263 262 261 260 259 258 256 254 252 250 252 253 252 254 256 251 247 246 244 244 244 243 243 245 249 254 257 258 260 259 257 256 256 256 256 256 256 255 254 253 252 252 252 251 251 251 251 251 251 251 251 251 251 251 251 251 251 251 251 251 251 252 252 253 254 254 253 253 254 254 254 254 253 252 251 251 251
266 266 266 265 265 265 265 264 264 263 263 261 260 260 258 256 254 252 252 254 255 256 256 251 248 247 247 247 245 243 245 249 253 257 259 260 262 262 261 260 260 260 259 258 258 257 256 254 253 253 253 253 252 252 251 251 251 252 252 252 252 252 252 252 252 252 252 252 252 252 252 253 253 254 254 254 254 254 254 255 255 255 254 253 253
268 268 267 266 265 265 265 264 264 264 263 263 262 261 260 259 257 255 254 254 254 255 255 253 250 249 250 249 246 244 245 249 252 255 258 259 260 260 260 261 262 263 262 261 260 258 257 256 255 254 254 253 254 254 253 253 252 252 252 252 252 252 252 253 253 253 253 253 253 253 253 253 253 254 254 254 254 254 254 254 254 255 255 255 255
271 270 269 268 267 266 265 265 264 264 263 263 263 262 262 261 261 259 258 256 255 255 255 254 253 252 252 251 249 246 246 248 252 254 256 258 259 259 259 261 262 263 262 261 261 260 260 258 257 256 255 255 255 255 255 254 254 253 253 253 253 253 253 253 253 253 253 253 253 254 254 254 254 254 255 255 254 254 254 254 254 254 254 255 255
273 272 271 270 269 268 267 266 265 264 263 263 263 262 263 263 262 262 261 260 259 258 257 257 256 255 254 254 253 251 250 250 251 254 256 258 259 259 259 261 262 263 262 261 260 260 261 260 260 259 258 257 256 256 256 256 255 255 255 254 254 253 253 253 253 253 253 253 254 254 254 254 254 254 254 255 255 255 255 255 255 255 255 255 255
274 273 273 272 271 270 268 267 266 265 264 263 262 262 262 262 263 263 263 263 262 261 260 259 259 258 257 256 256 255 254 253 253 254 256 258 259 259 259 259 260 261 261 261 260 260 260 261 261 261 260 259 259 258 258 258 257 256 256 255 255 254 254 254 254 254 254 254 254 254 254 255 255 255 255 255 255 255 255 255 255 255 255 256 256
274 273 273 272 272 271 270 269 268 267 266 265 264 263 262 261 261 262 262 262 263 262 262 261 261 260 260 259 259 258 257 255 255 255 256 257 259 259 259 258 259 259 259 260 260 260 260 260 261 261 261 260 260 260 260 259 259 258 257 257 256 255 255 255 255 255 255 255 255 255 255 255 255 256 256 256 256 256 256 256 255 255 255 255 256
272 272 272 272 271 271 271 270 269 268 268 267 266 265 264 262 262 261 261 261 261 261 261 261 261 261 261 261 260 259 258 257 257 257 258 258 259 259 259 258 258 258 258 259 259 259 260 260 260 260 260 260 260 260 260 260 259 259 259 258 258 257 256 255 255 255 255 256 256 256 256 256 256 256 256 256 256 257 257 257 257 257 256 256 256
272 271 271 271 270 270 270 269 269 269 268 268 267 266 266 265 264 263 262 261 261 260 260 260 260 260 260 260 259 259 258 258 258 259 259 259 259 259 259 258 258 259 259 259 259 259 259 259 260 260 260 260 260 260 260 260 260 260 259 259 259 258 258 258 257 256 256 256 256 256 256 256 257 257 257 257 257 257 257 257 257 257 258 257 257
271 271 271 270 270 269 269 268 268 268 267 267 267 267 266 266 265 264 264 263 262 261 261 261 260 260 259 259 259 259 259 259 258 258 258 258 259 259 259 259 259 259 259 259 259 259 259 259 260 260 260 260 260 260 260 260 260 260 260 260 259 259 259 259 259 259 258 258 257 257 256 256 256 257 257 258 258 258 258 258 257 257 258 258 258
270 270 270 269 269 269 269 268 268 268 267 267 267 266 266 266 266 266 266 265 264 264 263 263 263 263 262 261 260 260 260 260 260 259 259 259 259 259 259 260 260 260 260 260 260 260 260 260 260 260 260 260 260 260 260 260 260 260 260 260 260 260 260 260 260 260 260 260 259 259 259 258 257 257 257 257 258 258 259 259 259 258 258 258 258
269 269 269 269 269 268 268 268 268 267 267 266 266 266 267 267 267 267 267 267 267 267 267 267 267 266 264 263 263 263 262 262 261 261 260 260 260 260 260 260 260 260 260 260 260 260 260 260 260 260 261 260 260 261 261 261 261 261 261 261 261 261 261 261 261 261 261 261 261 261 261 261 260 260 259 258 258 258 258 259 259 259 259 259 258
268 268 268 268 268 267 267 267 266 266 265 265 265 266 267 267 267 267 267 268 268 268 268 268 267 266 265 265 265 264 263 263 262 262 262 262 262 262 262 261 261 261 260 260 260 260 260 260 260 261 261 261 261 261 262 262 262 262 262 262 262 262 262 262 262 262 262 262 262 262 262 262 262 262 262 261 260 260 259 258 259 259 259 259 259
267 267 267 267 267 266 266 265 264 264 265 265 266 266 266 267 267 267 267 267 268 267 267 266 265 266 266 266 265 264 263 263 263 263 263 263 262 262 262 262 262 261 261 261 261 261 261 261 261 261 261 262 262 262 262 262 262 262 263 263 263 263 263 263 264 264 263 263 263 263 263 263 263 263 263 263 263 262 261 260 259 258 258 259 259
266 265 265 265 265 265 264 264 264 265 266 266 266 266 266 266 267 267 267 266 266 266 266 266 265 266 266 265 265 264 264 264 264 264 263 263 262 262 261 261 262 262 262 262 262 262 262 262 263 263 262 262 262 262 262 262 262 262 263 263 264 264 264 265 265 265 265 265 265 264 264 263 263 263 263 263 263 263 263 262 261 260 259 259 259
264 264 264 264 263 263 264 265 265 266 266 266 265 265 265 265 265 265 265 265 265 266 266 265 265 265 264 264 264 265 265 265 264 263 262 262 262 262 262 262 262 262 262 263 263 263 263 263 263 263 263 263 262 262 262 262 262 263 263 264 264 265 266 266 267 267 267 267 266 266 265 264 264 263 263 263 263 263 263 263 262 262 261 261 260
263 262 262 261 262 263 264 264 264 265 265 265 265 265 265 263 262 262 263 264 265 265 264 264 264 264 264 264 264 264 264 264 263 263 263 263 264 263 263 263 263 263 263 263 263 263 263 263 264 264 264 264 263 264 264 264 264 264 264 265 265 266 266 266 266 267 266 266 266 266 266 265 265 264 264 263 263 263 263 263 263 263 262 262 262
261 261 260 260 261 262 263 263 263 263 264 264 265 264 263 262 262 262 263 263 263 263 263 263 263 263 263 264 264 264 263 263 263 264 264 264 263 263 263 263 263 263 263 263 264 264 264 264 265 265 265 266 266 266 266 266 266 266 266 266 266 265 265 265 265 265 265 265 265 264 264 264 264 264 263 263 263 263 264 263 263 263 263 262 262
260 260 260 261 262 261 261 262 262 263 263 263 263 263 262 262 263 262 262 262 262 262 263 263 263 263 264 264 264 264 264 264 264 263 263 263 263 263 264 264 264 264 264 264 265 265 266 266 267 267 268 269 269 269 269 269 269 268 268 267 266 265 265 265 264 265 265 264 264 263 262 262 261 262 262 263 263 264 264 264 264 264 263 263 262
261 261 261 261 260 260 261 261 262 262 261 261 261 261 262 261 261 261 261 262 262 262 262 263 263 263 264 263 263 264 263 263 263 263 263 263 263 263 264 264 265 265 265 265 266 266 267 268 269 270 270 270 270 271 271 271 271 270 269 268 267 266 266 266 266 265 263 262 261 259 259 259 259 260 261 262 263 264 265 265 266 266 265 265 264
260 260 260 260 260 260 261 261 261 260 260 260 260 260 261 260 260 261 261 262 262 262 261 261 262 262 262 262 263 263 263 263 263 263 263 263 263 263 263 264 265 265 266 267 268 269 269 270 270 270 270 271 272 273 274 273 273 272 271 271 270 269 268 267 266 264 262 260 258 258 258 258 259 260 262 263 265 266 267 267 268 268 267 267 265
259 258 258 258 259 260 260 259 259 259 259 259 259 259 260 260 260 260 260 260 260 260 260 260 261 262 261 261 261 261 261 261 262 262 262 263 263 264 264 265 266 266 267 268 269 269 269 270 270 271 272 274 275 275 276 275 275 274 273 273 272 271 269 267 266 265 263 262 261 260 260 260 261 262 263 263 264 265 266 267 267 267 267 266 265
258 258 258 258 258 258 258 258 258 258 259 259 259 259 259 259 259 259 259 259 259 259 260 260 261 261 260 259 259 259 260 261 262 262 263 264 265 265 266 267 267 267 268 268 268 268 269 270 272 273 275 276 277 277 277 276 274 274 274 273 272 271 269 268 267 266 265 265 264 263 263 262 262 262 263 263 264 264 265 265 265 265 264 263 263
256 257 258 258 258 257 257 257 257 257 257 258 259 259 259 259 259 258 258 258 258 259 259 259 259 259 260 259 259 260 261 262 263 263 264 264 265 266 266 267 267 267 267 268 268 269 271 273 274 276 277 278 279 278 276 275 275 275 274 272 271 270 269 269 268 267 266 265 265 265 264 263 263 263 263 263 263 263 264 264 264 263 263 263 263
255 256 256 257 257 258 258 258 258 257 257 257 258 259 259 259 258 258 258 258 258 258 258 258 258 259 259 260 260 260 260 261 262 263 263 264 265 265 265 265 266 266 267 268 270 272 273 275 276 278 280 279 278 277 276 277 276 274 272 270 269 269 269 268 267 267 266 266 265 264 264 264 264 264 265 264 264 265 265 266 265 265 265 265 265
254 254 254 255 256 257 258 259 260 260 259 259 259 259 260 259 259 259 259 259 259 259 259 258 258 258 258 258 258 258 259 259 260 260 261 261 261 262 262 263 264 266 268 269 271 272 274 276 279 280 279 278 277 276 276 275 272 270 269 268 267 266 265 265 265 265 264 264 264 264 265 265 265 266 266 267 267 267 267 267 266 265 265 264 264
253 252 253 254 255 256 258 259 260 260 260 260 261 261 261 261 261 261 261 260 260 259 259 258 258 258 258 257 257 257 258 258 258 258 258 258 259 260 261 262 264 266 268 269 271 273 275 278 279 278 276 275 275 274 272 269 267 266 265 264 263 263 263 263 263 262 262 263 264 264 264 265 266 266 267 268 268 267 266 265 264 263 261 260 260
251 251 252 253 254 255 257 257 258 259 259 260 260 261 261 262 262 262 261 261 261 260 260 259 259 258 257 257 256 256 256 256 255 256 256 257 258 259 260 262 264 265 267 269 271 274 277 278 276 275 274 274 273 272 270 268 266 265 263 262 263 263 262 262 262 263 263 264 264 265 266 267 268 269 269 270 269 269 268 266 265 264 262 261 260
250 250 251 252 253 254 255 256 257 257 258 259 260 260 261 261 261 260 260 260 260 260 259 258 257 256 255 254 253 253 253 253 253 253 254 255 256 258 259 261 263 265 267 270 273 276 277 275 273 273 273 272 271 270 269 268 266 264 263 263 263 262 262 262 264 265 266 267 268 270 271 273 273 274 274 274 273 273 271 270 269 267 265 264 263
248 249 250 251 252 253 254 255 256 257 258 259 259 260 260 260 259 258 258 258 257 256 255 254 252 251 251 250 250 249 249 250 250 251 251 253 254 256 259 261 263 266 268 272 274 276 274 272 271 271 270 269 268 268 267 266 265 263 262 261 260 261 263 264 266 267 270 272 273 274 275 275 275 275 274 273 272 271 270 268 267 266 265 264 262
246 247 248 249 250 251 253 254 255 256 258 258 259 259 259 258 257 256 255 254 253 251 250 248 247 246 246 246 246 246 246 246 246 248 249 251 253 256 259 262 264 267 270 272 274 273 271 269 269 268 266 264 264 263 263 261 260 259 259 259 261 263 265 266 269 271 272 273 273 274 273 273 272 270 269 268 267 267 266 266 266 265 264 263 261
243 244 246 247 248 250 251 252 253 255 256 256 256 256 255 254 253 252 251 250 248 246 245 244 242 242 242 241 241 241 241 242 244 246 248 251 254 257 260 262 264 267 269 271 271 270 269 268 267 264 261 259 257 257 257 257 257 258 258 260 261 263 265 268 269 270 270 270 270 270 269 268 267 266 265 265 266 266 266 266 266 266 265 264 263
240 241 243 244 246 248 249 251 251 252 252 252 251 250 250 249 248 247 245 244 243 242 240 239 237 236 236 236 236 237 239 240 243 246 249 253 256 258 260 262 265 266 268 269 270 269 268 266 263 259 255 251 250 252 254 256 256 256 257 258 260 261 263 265 267 267 266 266 266 265 265 263 262 262 263 264 266 267 267 267 267 267 266 265 263
237 238 239 241 243 245 247 248 248 248 247 246 246 245 245 244 243 242 240 239 238 237 235 233 232 232 232 232 234 236 238 242 245 248 251 255 257 258 259 261 263 265 267 268 268 268 265 261 256 252 248 246 247 250 253 253 253 252 254 255 257 259 261 262 263 262 262 261 261 260 260 259 260 261 263 265 266 267 268 268 268 267 265 263 262
233 235 236 238 240 241 243 244 244 243 242 242 242 241 241 240 239 238 236 234 233 232 231 229 229 230 230 230 232 235 239 243 247 251 255 257 257 256 257 259 262 263 265 266 267 264 260 254 248 244 242 242 244 246 248 249 250 251 252 254 256 257 258 257 256 255 256 256 256 256 256 257 260 262 264 266 268 270 270 270 270 268 266 264 263
230 231 233 235 237 238 240 240 239 238 238 238 238 238 237 236 235 233 232 231 231 231 230 230 230 230 230 230 232 236 241 246 250 254 257 257 254 253 255 258 260 262 262 263 263 260 253 246 241 238 239 240 241 243 246 249 249 249 249 251 252 252 251 251 250 251 252 253 254 254 256 258 261 264 266 268 270 271 272 271 269 268 266 265 264
227 229 231 233 234 236 237 237 237 236 236 236 235 235 234 233 232 231 230 231 231 231 232 233 233 233 232 231 233 237 242 246 251 255 256 254 251 252 255 258 260 260 259 260 259 254 246 239 235 234 236 238 240 242 245 247 247 246 247 248 248 247 245 245 247 249 250 251 253 255 257 259 262 265 269 272 273 273 272 269 266 264 263 263 264
226 227 229 230 232 233 235 236 236 236 235 235 234 233 232 231 231 230 230 231 232 233 234 235 236 236 235 234 236 240 243 246 250 254 255 253 251 252 255 258 259 258 257 256 254 248 239 233 230 231 234 237 239 241 243 244 245 245 245 245 244 243 243 244 244 245 247 248 250 252 257 261 265 268 272 275 275 273 269 265 263 263 263 264 266
225 226 227 229 230 231 233 234 235 235 234 233 232 232 231 231 231 231 232 232 233 235 236 237 238 238 238 238 241 243 244 246 251 256 256 253 250 250 253 257 258 256 254 253 250 243 234 229 227 228 232 235 238 238 240 242 244 244 244 243 241 240 243 245 245 243 243 245 246 248 252 259 265 268 274 276 275 272 268 266 265 266 268 270 271
227 227 227 228 229 229 231 232 232 233 233 232 231 231 231 230 231 232 233 234 235 237 237 238 238 238 240 242 244 245 245 248 254 257 257 254 251 249 251 255 256 255 252 251 247 239 231 226 225 226 229 233 236 238 239 241 243 243 243 243 240 239 242 246 246 243 242 243 244 243 245 253 261 265 269 272 273 273 274 274 273 275 278 279 277
228 227 227 227 227 227 228 229 230 231 231 231 231 230 231 231 231 232 233 234 236 238 239 239 239 240 242 243 244 244 245 249 253 255 255 254 251 249 249 252 254 253 251 249 245 238 229 224 223 225 227 230 234 237 240 241 242 243 242 242 240 238 240 244 246 244 242 242 242 240 239 242 251 258 264 266 267 270 277 280 280 281 283 283 279
Height
10538 10532 10525 10522 10522 10524 10524 10525 10526 10527 10529 10531 10532 10534 10535 10536 10536 10536 10537 10537 10538 10540 10541 10542 10544 10545 10546 10547 10549 10550 10552 10553 10554 10555 10556 10557 10558 10559 10560 10561 10562 10564 10565 10567 10568 10569 10571 10572 10573 10574 10575 10576 10577 10579 10580 10581 10583 10584 10586 10587 10589 10592 10595 10597 10599 10601 10602 10604 10605 10607 10609 10610 10612 10614 10616 10618 10619 10621 10623 10625 10627 10628 10629 10630 10631
10528 10526 10520 10514 10514 10516 10517 10516 10516 10519 10521 10523 10525 10527 10528 10529 10529 10530 10531 10531 10532 10533 10535 10536 10537 10539 10540 10541 10543 10544 10545 10546 10547 10548 10549 10549 10551 10552 10553 10555 10556 10558 10559 10560 10561 10562 10563 10565 10566 10567 10568 10569 10570 10571 10573 10574 10575 10577 10578 10580 10581 10583 10585 10587 10590 10592 10595 10597 10598 10600 10601 10602 10604 10606 10608 10610 10611 10613 10615 10617 10619 10620 10621 10622 10623
10516 10515 10512 10509 10508 10508 10508 10507 10508 10511 10513 10515 10517 10519 10520 10522 10522 10523 10524 10525 10525 10526 10529 10530 10531 10533 10533 10534 10536 10537 10538 10539 10539 10540 10541 10542 10543 10545 10546 10548 10549 10551 10552 10553 10554 10555 10555 10556 10558 10559 10560 10561 10562 10563 10565 10566 10568 10569 10571 10572 10574 10575 10577 10578 10580 10583 10585 10588 10591 10592 10594 10596 10597 10598 10600 10602 10603 10605 10607 10609 10611 10612 10613 10614 10615
10503 10503 10502 10501 10500 10500 10500 10499 10500 10502 10504 10506 10508 10511 10513 10513 10514 10515 10516 10517 10518 10520 10522 10523 10525 10527 10527 10528 10529 10530 10531 10532 10532 10532 10533 10534 10536 10538 10539 10541 10541 10542 10543 10545 10546 10547 10548 10549 10550 10551 10553 10553 10554 10555 10557 10558 10560 10561 10563 10564 10566 10567 10569 10570 10572 10574 10576 10579 10582 10584 10585 10587 10589 10590 10592 10594 10596 10598 10599 10601 10603 10604 10605 10606 10607
10491 10491 10491 10492 10492 10491 10492 10492 10493 10495 10496 10497 10500 10502 10503 10504 10505 10505 10507 10509 10511 10513 10515 10517 10519 10519 10519 10520 10522 10523 10524 10524 10524 10524 10525 10526 10527 10529 10531 10532 10533 10534 10535 10537 10538 10539 10541 10542 10543 10544 10544 10545 10546 10547 10549 10550 10552 10553 10555 10556 10557 10559 10560 10562 10564 10565 10567 10569 10572 10575 10577 10578 10580 10581 10583 10585 10587 10589 10591 10593 10595 10596 10597 10598 10599
10482 10482 10482 10483 10484 10483 10483 10485 10486 10488 10488 10489 10492 10493 10495 10497 10497 10497 10498 10500 10502 10505 10509 10514 10514 10511 10509 10509 10510 10513 10515 10515 10515 10514 10514 10515 10517 10519 10521 10522 10524 10526 10527 10528 10529 10531 10532 10533 10534 10535 10536 10537 10538 10540 10541 10542 10544 10545 10547 10548 10549 10551 10552 10554 10556 10557 10558 10559 10562 10565 10568 10570 10572 10573 10575 10577 10579 10580 10583 10585 10587 10588 10589 10590 10591
10473 10474 10475 10476 10477 10477 10477 10478 10479 10481 10482 10482 10484 10486 10489 10491 10489 10487 10489 10491 10494 10497 10501 10505 10503 10498 10497 10498 10500 10504 10507 10506 10504 10502 10500 10503 10506 10508 10511 10513 10515 10517 10518 10520 10521 10522 10523 10524 10525 10526 10527 10528 10530 10532 10533 10535 10536 10538 10539 10540 10542 10543 10544 10546 10548 10549 10550 10551 10552 10554 10557 10560 10562 10564 10566 10570 10572 10573 10575 10578 10579 10579 10581 10582 10583
10465 10466 10467 10468 10469 10470 10471 10472 10473 10474 10475 10476 10477 10479 10481 10482 10480 10480 10482 10485 10488 10490 10492 10493 10491 10488 10489 10491 10494 10498 10499 10496 10491 10487 10487 10491 10494 10498 10501 10504 10505 10507 10509 10510 10511 10513 10514 10515 10516 10518 10518 10519 10522 10524 10525 10526 10528 10529 10531 10532 10533 10534 10536 10537 10539 10541 10542 10543 10544 10545 10547 10549 10550 10552 10556 10560 10564 10565 10566 10569 10571 10571 10572 10573 10574
10458 10458 10459 10460 10461 10462 10463 10465 10466 10467 10468 10469 10471 10472 10473 10474 10474 10474 10475 10478 10482 10484 10485 10486 10485 10484 10484 10486 10488 10490 10488 10484 10479 10476 10477 10480 10484 10488 10491 10493 10495 10497 10499 10500 10502 10503 10504 10505 10507 10509 10509 10510 10512 10515 10516 10517 10519 10520 10522 10524 10525 10525 10527 10528 10529 10531 10533 10535 10535 10536 10538 10539 10540 10542 10545 10549 10553 10555 10557 10560 10562 10561 10562 10564 10565
10450 10451 10451 10452 10453 10454 10456 10457 10458 10460 10461 10462 10463 10464 10466 10467 10468 10469 10469 10471 10474 10476 10478 10479 10479 10479 10479 10480 10482 10481 10478 10474 10471 10470 10470 10471 10474 10479 10482 10483 10485 10488 10490 10491 10493 10494 10495 10495 10497 10499 10499 10500 10503 10505 10506 10508 10509 10511 10512 10514 10516 10517 10518 10519 10520 10522 10524 10525 10526 10527 10529 10530 10530 10532 10535 10537 10540 10544 10546 10549 10552 10552 10552 10555 10555
10442 10443 10444 10445 10445 10446 10448 10449 10450 10451 10452 10453 10454 10456 10457 10459 10461 10462 10462 10463 10465 10467 10470 10472 10473 10473 10473 10474 10475 10475 10471 10467 10465 10464 10464 10465 10466 10469 10473 10476 10476 10478 10481 10483 10483 10485 10485 10486 10488 10489 10490 10491 10493 10495 10496 10498 10499 10501 10502 10504 10506 10507 10508 10510 10511 10512 10514 10516 10517 10518 10520 10520 10520 10522 10525 10527 10529 10533 10535 10536 10539 10542 10543 10546 10546
10433 10435 10436 10437 10438 10439 10440 10441 10441 10442 10443 10444 10445 10446 10448 10449 10451 10454 10454 10454 10455 10457 10460 10463 10464 10465 10466 10467 10468 10468 10466 10462 10461 10460 10459 10458 10457 10459 10464 10467 10468 10469 10471 10472 10473 10474 10475 10477 10479 10480 10480 10480 10482 10484 10486 10488 10489 10490 10492 10494 10495 10497 10499 10500 10501 10502 10503 10505 10507 10508 10509 10510 10511 10511 10512 10515 10519 10522 10523 10524 10526 10529 10532 10534 10536
10423 10425 10426 10427 10429 10430 10431 10432 10432 10433 10434 10434 10435 10436 10437 10438 10440 10443 10445 10446 10446 10447 10449 10451 10453 10454 10456 10458 10460 10460 10459 10457 10456 10455 10452 10449 10448 10450 10454 10459 10460 10460 10460 10460 10461 10463 10465 10466 10467 10468 10469 10470 10471 10473 10475 10477 10477 10479 10482 10483 10484 10486 10488 10490 10490 10491 10492 10493 10496 10497 10497 10499 10501 10500 10499 10503 10507 10509 10511 10513 10514 10517 10520 10521 10523
10413 10414 10415 10416 10419 10420 10421 10422 10423 10423 10424 10424 10425 10425 10426 10427 10428 10430 10433 10435 10436 10437 10438 10440 10442 10444 10445 10446 10448 10451 10453 10452 10449 10446 10442 10438 10438 10440 10445 10451 10453 10451 10449 10450 10451 10452 10454 10454 10455 10456 10458 10459 10461 10462 10464 10465 10466 10468 10471 10472 10474 10475 10476 10477 10478 10478 10479 10481 10484 10485 10485 10486 10489 10489 10488 10490 10493 10496 10498 10501 10503 10505 10508 10509 10510
10401 10403 10403 10404 10406 10408 10410 10411 10412 10413 10414 10415 10415 10415 10415 10416 10417 10418 10419 10421 10424 10426 10427 10429 10431 10433 10434 10435 10437 10441 10446 10445 10440 10435 10431 10427 10427 10431 10437 10442 10442 10440 10439 10440 10441 10442 10442 10443 10443 10445 10447 10448 10450 10451 10452 10453 10455 10456 10458 10461 10462 10464 10464 10465 10465 10466 10468 10470 10473 10474 10474 10474 10476 10477 10476 10477 10479 10482 10485 10488 10491 10492 10495 10497 10498
10390 10391 10392 10392 10393 10395 10397 10399 10400 10401 10402 10404 10405 10405 10406 10407 10407 10407 10408 10409 10410 10413 10414 10416 10419 10421 10423 10424 10428 10432 10434 10432 10428 10424 10420 10417 10418 10422 10428 10431 10430 10429 10428 10429 10430 10431 10431 10431 10433 10434 10435 10437 10439 10440 10441 10441 10442 10443 10445 10448 10450 10452 10453 10452 10453 10454 10457 10459 10460 10461 10462 10463 10463 10463 10464 10465 10467 10468 10471 10476 10478 10478 10481 10485 10487
10379 10380 10380 10380 10381 10383 10384 10385 10387 10388 10390 10391 10393 10394 10395 10397 10397 10397 10398 10398 10399 10400 10401 10404 10405 10408 10411 10414 10418 10420 10418 10415 10414 10412 10411 10410 10410 10412 10416 10417 10417 10417 10417 10418 10419 10419 10419 10420 10421 10421 10422 10425 10428 10429 10428 10428 10428 10430 10433 10435 10437 10439 10440 10439 10440 10442 10444 10446 10447 10449 10450 10451 10451 10451 10451 10453 10454 10455 10458 10463 10464 10464 10469 10473 10475
10369 10369 10369 10370 10371 10371 10372 10373 10374 10375 10377 10378 10379 10381 10383 10384 10385 10387 10388 10388 10388 10388 10389 10391 10393 10397 10401 10403 10403 10403 10401 10401 10401 10401 10402 10402 10400 10399 10402 10403 10404 10404 10405 10406 10408 10408 10408 10408 10409 10409 10410 10414 10416 10416 10415 10415 10416 10418 10420 10422 10424 10425 10425 10426 10428 10430 10431 10432 10434 10435 10436 10437 10437 10438 10439 10440 10441 10442 10445 10448 10449 10450 10455 10460 10462
10358 10358 10358 10359 10360 10360 10361 10362 10363 10364 10364 10365 10366 10367 10369 10370 10372 10374 10375 10376 10376 10376 10377 10380 10383 10387 10390 10389 10387 10388 10388 10389 10391 10391 10390 10389 10387 10387 10388 10390 10391 10392 10393 10395 10396 10396 10396 10396 10397 10398 10399 10401 10402 10402 10402 10402 10403 10405 10407 10409 10410 10411 10411 10413 10415 10417 10418 10419 10420 10421 10422 10423 10424 10425 10425 10426 10427 10428 10431 10434 10435 10437 10441 10444 10447
10346 10346 10347 10348 10348 10349 10350 10351 10352 10352 10353 10353 10353 10354 10355 10357 10359 10361 10362 10363 10363 10363 10366 10370 10373 10375 10376 10375 10375 10375 10376 10378 10379 10379 10377 10376 10375 10375 10376 10378 10380 10382 10382 10383 10383 10384 10383 10383 10385 10387 10387 10388 10388 10389 10389 10390 10391 10392 10393 10394 10396 10397 10399 10400 10402 10403 10404 10405 10405 10406 10408 10409 10410 10411 10412 10412 10412 10413 10415 10418 10420 10423 10427 10429 10431
10336 10335 10335 10336 10336 10337 10338 10339 10340 10341 10341 10341 10341 10342 10343 10345 10347 10348 10349 10350 10349 10351 10356 10360 10361 10362 10363 10362 10362 10364 10365 10366 10366 10366 10365 10364 10364 10365 10366 10367 10369 10370 10371 10371 10371 10371 10371 10372 10374 10375 10374 10375 10375 10376 10377 10378 10379 10379 10379 10380 10381 10383 10385 10387 10389 10390 10391 10391 10392 10392 10394 10395 10396 10396 10398 10399 10399 10398 10400 10402 10404 10407 10411 10414 10416
10325 10325 10324 10325 10326 10326 10327 10328 10328 10328 10328 10328 10329 10331 10332 10334 10336 10337 10337 10337 10336 10339 10346 10350 10349 10347 10347 10348 10350 10353 10354 10354 10353 10352 10352 10353 10354 10355 10355 10356 10357 10359 10359 10359 10359 10359 10359 10360 10362 10363 10362 10362 10363 10364 10365 10366 10366 10366 10366 10366 10368 10369 10370 10373 10375 10376 10377 10378 10379 10380 10380 10380 10381 10382 10383 10384 10384 10385 10386 10388 10389 10390 10393 10397 10400
10315 10314 10314 10314 10315 10315 10316 10316 10315 10314 10314 10316 10319 10320 10321 10323 10325 10326 10325 10325 10325 10329 10336 10337 10334 10332 10333 10336 10338 10340 10340 10340 10339 10340 10341 10343 10344 10344 10344 10344 10345 10347 10347 10347 10347 10348 10347 10348 10350 10351 10350 10351 10352 10353 10353 10353 10353 10353 10353 10354 10355 10355 10356 10358 10360 10362 10364 10365 10366 10367 10367 10367 10368 10368 10369 10369 10369 10370 10372 10373 10374 10375 10376 10379 10382
10305 10304 10304 10303 10304 10304 10304 10302 10301 10301 10303 10306 10309 10311 10311 10313 10314 10314 10315 10315 10315 10317 10322 10322 10319 10320 10322 10324 10325 10326 10326 10327 10327 10329 10330 10331 10332 10332 10332 10332 10333 10334 10334 10335 10335 10336 10336 10336 10338 10339 10340 10340 10341 10341 10341 10341 10341 10341 10341 10341 10341 10342 10343 10345 10346 10348 10350 10351 10352 10353 10354 10354 10354 10355 10355 10355 10355 10355 10355 10357 10359 10360 10361 10362 10365
10294 10294 10293 10293 10293 10291 10290 10290 10290 10292 10295 10297 10299 10300 10301 10303 10303 10303 10304 10304 10304 10306 10310 10309 10309 10311 10313 10312 10312 10313 10314 10316 10318 10319 10319 10319 10319 10320 10320 10321 10322 10322 10323 10324 10325 10325 10325 10326 10326 10327 10328 10328 10329 10329 10329 10329 10329 10329 10330 10329 10330 10330 10331 10332 10333 10335 10336 10338 10338 10339 10340 10341 10341 10341 10341 10341 10341 10340 10340 10342 10344 10345 10346 10347 10350
10284 10284 10284 10283 10280 10279 10280 10281 10282 10283 10285 10287 10288 10290 10292 10294 10294 10293 10292 10292 10294 10297 10299 10299 10299 10301 10302 10301 10302 10303 10305 10307 10308 10308 10307 10308 10308 10309 10310 10311 10312 10312 10313 10314 10314 10315 10315 10315 10315 10315 10316 10316 10317 10317 10317 10317 10318 10319 10319 10319 10320 10320 10320 10321 10322 10322 10323 10324 10325 10325 10326 10327 10327 10327 10327 10327 10327 10326 10327 10328 10329 10331 10332 10335 10337
10274 10274 10273 10271 10270 10270 10272 10273 10273 10274 10275 10277 10278 10280 10282 10283 10283 10282 10283 10284 10287 10288 10288 10289 10289 10291 10292 10293 10293 10295 10296 10297 10297 10296 10298 10299 10300 10300 10301 10301 10302 10302 10303 10304 10304 10304 10304 10304 10304 10304 10305 10305 10306 10307 10307 10308 10308 10309 10310 10310 10310 10310 10310 10310 10310 10311 10311 10312 10312 10313 10313 10313 10313 10313 10313 10313 10313 10314 10314 10315 10317 10318 10320 10323 10326
10263 10262 10261 10261 10262 10263 10263 10263 10263 10265 10267 10268 10269 10270 10271 10271 10273 10274 10275 10277 10278 10278 10278 10279 10280 10281 10283 10284 10285 10286 10286 10287 10287 10288 10290 10290 10290 10290 10290 10292 10292 10293 10293 10293 10293 10294 10294 10294 10294 10294 10295 10296 10296 10297 10298 10298 10299 10299 10300 10300 10300 10299 10299 10299 10299 10299 10300 10301 10301 10302 10301 10301 10301 10300 10299 10300 10300 10301 10302 10303 10305 10307 10309 10312 10314
10252 10252 10252 10253 10254 10253 10253 10253 10256 10258 10260 10260 10260 10259 10261 10263 10265 10266 10266 10267 10269 10270 10270 10270 10271 10273 10275 10276 10277 10277 10278 10278 10279 10280 10280 10281 10282 10281 10281 10282 10283 10284 10284 10284 10284 10285 10285 10284 10285 10286 10286 10286 10287 10287 10288 10289 10289 10289 10289 10289 10288 10288 10288 10288 10289 10290 10290 10291 10291 10291 10290 10289 10288 10288 10287 10288 10289 10290 10291 10293 10295 10297 10299 10301 10303
10243 10244 10245 10245 10244 10244 10244 10246 10249 10250 10250 10251 10251 10251 10253 10255 10256 10257 10258 10259 10261 10262 10262 10262 10263 10266 10268 10268 10269 10269 10270 10270 10271 10271 10272 10273 10274 10274 10273 10274 10274 10275 10275 10275 10276 10276 10276 10277 10277 10277 10277 10277 10277 10278 10279 10279 10279 10279 10278 10278 10277 10278 10278 10279 10279 10280 10280 10280 10279 10279 10278 10278 10277 10277 10277 10279 10280 10280 10282 10284 10286 10287 10289 10291 10292
10235 10236 10236 10235 10235 10236 10237 10239 10241 10241 10241 10242 10243 10244 10245 10247 10249 10249 10251 10252 10253 10254 10254 10255 10256 10259 10260 10261 10261 10262 10262 10263 10263 10263 10264 10265 10265 10266 10266 10267 10267 10267 10268 10268 10268 10268 10268 10268 10268 10268 10268 10269 10269 10270 10270 10270 10270 10269 10269 10268 10268 10268 10269 10269 10269 10269 10269 10268 10268 10268 10268 10269 10269 10270 10270 10271 10272 10273 10274 10275 10277 10278 10279 10281 10282
10226 10227 10226 10227 10227 10228 10229 10231 10232 10232 10233 10235 10236 10237 10238 10240 10242 10243 10244 10245 10246 10247 10247 10248 10250 10251 10253 10254 10254 10255 10255 10255 10256 10256 10257 10258 10258 10259 10259 10260 10261 10261 10261 10261 10261 10261 10260 10260 10260 10260 10261 10261 10262 10263 10262 10262 10261 10261 10260 10260 10259 10259 10259 10259 10259 10259 10259 10259 10260 10260 10261 10262 10263 10263 10263 10264 10265 10266 10266 10267 10269 10270 10270 10271 10272
10216 10217 10218 10219 10220 10220 10221 10222 10224 10225 10227 10228 10229 10230 10231 10233 10235 10236 10237 10238 10239 10240 10241 10242 10243 10244 10245 10246 10247 10247 10248 10249 10249 10250 10251 10251 10252 10252 10253 10254 10254 10254 10254 10254 10253 10253 10252 10252 10253 10254 10254 10255 10255 10255 10254 10254 10253 10253 10253 10252 10251 10250 10250 10251 10251 10251 10251 10252 10252 10253 10254 10255 10256 10256 10256 10257 10258 10259 10259 10260 10261 10262 10262 10263 10263
10207 10209 10211 10211 10211 10211 10213 10215 10217 10219 10220 10221 10222 10223 10225 10226 10228 10229 10230 10231 10232 10233 10234 10235 10236 10237 10238 10239 10240 10241 10242 10243 10244 10244 10245 10246 10246 10247 10247 10248 10247 10247 10247 10246 10246 10246 10246 10247 10247 10248 10248 10248 10248 10247 10246 10246 10246 10246 10245 10244 10244 10243 10243 10244 10244 10244 10244 10245 10245 10246 10247 10248 10249 10249 10250 10251 10251 10252 10253 10253 10254 10255 10255 10256 10256
10200 10202 10203 10203 10203 10204 10205 10207 10210 10212 10214 10215 10216 10216 10218 10219 10220 10222 10223 10224 10225 10226 10227 10228 10229 10230 10231 10233 10234 10235 10236 10237 10238 10238 10239 10240 10240 10241 10241 10241 10240 10240 10240 10240 10240 10240 10240 10241 10241 10242 10242 10241 10241 10240 10239 10239 10239 10239 10238 10237 10238 10238 10238 10238 10238 10238 10239 10239 10240 10240 10241 10242 10243 10243 10243 10244 10245 10246 10246 10247 10248 10249 10249 10250 10250
10193 10195 10195 10196 10196 10197 10198 10200 10203 10205 10207 10208 10209 10210 10211 10212 10213 10215 10216 10217 10218 10220 10221 10222 10223 10224 10226 10227 10228 10229 10230 10231 10232 10232 10233 10234 10234 10234 10234 10234 10234 10234 10234 10234 10235 10235 10235 10235 10236 10236 10235 10234 10234 10233 10234 10233 10233 10233 10233 10233 10233 10233 10233 10233 10234 10234 10234 10234 10235 10235 10236 10236 10237 10238 10238 10238 10240 10241 10241 10242 10243 10243 10244 10244 10245
10186 10187 10188 10188 10189 10190 10192 10194 10197 10198 10200 10201 10202 10203 10204 10205 10207 10208 10209 10210 10212 10213 10214 10216 10217 10218 10219 10220 10221 10222 10224 10224 10225 10226 10226 10227 10227 10228 10228 10228 10229 10229 10229 10229 10229 10229 10230 10231 10231 10230 10229 10229 10228 10228 10228 10228 10228 10228 10229 10228 10228 10229 10229 10229 10229 10229 10230 10230 10230 10231 10231 10232 10232 10233 10233 10234 10235 10235 10236 10236 10237 10238 10238 10239 10240
10179 10180 10181 10181 10183 10185 10186 10188 10190 10192 10193 10195 10196 10197 10198 10199 10201 10202 10203 10204 10205 10207 10208 10210 10211 10212 10213 10214 10215 10216 10217 10218 10219 10220 10220 10221 10221 10222 10223 10223 10223 10223 10223 10223 10224 10224 10225 10225 10225 10224 10224 10224 10224 10223 10223 10224 10224 10224 10224 10225 10225 10225 10225 10225 10225 10225 10226 10226 10226 10227 10227 10228 10228 10229 10229 10229 10230 10230 10231 10231 10232 10232 10233 10234 10234
10172 10173 10174 10175 10177 10179 10180 10182 10184 10186 10188 10189 10190 10191 10193 10194 10195 10196 10197 10198 10200 10201 10202 10204 10205 10206 10207 10208 10210 10210 10211 10212 10213 10214 10215 10216 10216 10217 10217 10218 10218 10218 10218 10219 10220 10220 10220 10220 10220 10220 10220 10220 10219 10219 10219 10220 10220 10221 10221 10221 10221 10221 10221 10222 10222 10222 10222 10223 10223 10223 10224 10224 10224 10224 10225 10225 10225 10225 10226 10226 10227 10227 10227 10228 10229
10165 10167 10168 10170 10172 10173 10175 10177 10179 10181 10182 10184 10185 10186 10187 10188 10189 10191 10192 10193 10195 10196 10197 10199 10200 10201 10202 10203 10204 10206 10207 10208 10209 10210 10211 10211 10212 10212 10213 10213 10214 10214 10214 10215 10216 10216 10216 10215 10215 10216 10216 10216 10216 10216 10216 10217 10217 10218 10218 10218 10218 10218 10218 10219 10219 10219 10220 10220 10220 10220 10220 10221 10221 10221 10221 10221 10221 10221 10222 10222 10223 10223 10223 10224 10225
10159 10161 10162 10164 10167 10168 10170 10172 10174 10176 10177 10178 10180 10181 10182 10183 10185 10186 10187 10189 10190 10191 10193 10194 10195 10196 10197 10199 10200 10201 10203 10204 10205 10206 10206 10207 10208 10208 10209 10209 10210 10210 10211 10211 10212 10212 10212 10212 10212 10212 10212 10212 10212 10213 10213 10214 10214 10215 10215 10215 10215 10216 10216 10216 10216 10217 10217 10217 10217 10217 10218 10218 10218 10218 10218 10218 10218 10218 10218 10219 10219 10220 10220 10221 10221
10154 10155 10158 10160 10162 10164 10165 10168 10170 10172 10173 10174 10175 10176 10177 10179 10180 10182 10183 10185 10186 10187 10188 10190 10191 10192 10194 10195 10196 10198 10199 10200 10201 10202 10203 10203 10204 10205 10205 10206 10206 10206 10207 10208 10208 10208 10208 10208 10209 10209 10209 10209 10209 10210 10210 10211 10212 10212 10212 10213 10213 10213 10214 10214 10214 10214 10215 10215 10215 10215 10215 10215 10215 10215 10215 10215 10215 10215 10216 10216 10216 10217 10217 10218 10218
10149 10151 10153 10155 10157 10159 10161 10163 10166 10167 10169 10170 10171 10172 10174 10175 10177 10178 10180 10181 10182 10183 10185 10186 10187 10189 10190 10192 10193 10194 10195 10196 10197 10198 10199 10200 10201 10201 10202 10202 10202 10203 10204 10204 10204 10205 10205 10205 10205 10206 10206 10206 10206 10207 10208 10209 10210 10210 10210 10210 10211 10211 10211 10212 10212 10212 10212 10212 10212 10212 10212 10212 10212 10212 10212 10213 10213 10213 10213 10213 10214 10214 10214 10215 10215
10145 10147 10149 10151 10153 10155 10157 10159 10161 10163 10165 10166 10168 10169 10170 10172 10174 10175 10176 10178 10179 10180 10182 10183 10184 10186 10187 10189 10190 10191 10192 10193 10194 10195 10196 10197 10198 10198 10198 10199 10199 10200 10200 10201 10201 10202 10202 10202 10202 10203 10203 10203 10204 10205 10206 10206 10207 10207 10208 10208 10208 10209 10209 10210 10210 10210 10210 10210 10210 10210 10210 10210 10210 10210 10210 10211 10211 10211 10211 10211 10211 10211 10212 10212 10213
10141 10143 10145 10147 10149 10151 10153 10155 10158 10160 10161 10163 10164 10166 10167 10169 10170 10172 10173 10175 10176 10178 10179 10180 10182 10183 10185 10186 10188 10189 10190 10191 10191 10192 10193 10194 10194 10195 10195 10195 10196 10196 10197 10198 10198 10199 10199 10199 10200 10200 10200 10200 10201 10202 10203 10204 10205 10205 10205 10206 10206 10207 10207 10207 10207 10207 10208 10208 10208 10208 10208 10208 10208 10208 10208 10208 10209 10208 10209 10209 10209 10209 10209 10210 10210
10138 10140 10142 10144 10146 10148 10150 10152 10154 10156 10158 10160 10161 10163 10164 10166 10167 10169 10170 10172 10173 10175 10176 10178 10179 10180 10182 10183 10185 10186 10187 10188 10188 10189 10190 10190 10191 10191 10191 10192 10192 10193 10194 10195 10195 10195 10196 10196 10197 10197 10197 10198 10198 10200 10201 10202 10203 10203 10203 10203 10204 10204 10205 10205 10205 10205 10205 10206 10206 10206 10206 10206 10207 10206 10206 10206 10206 10206 10206 10207 10207 10207 10207 10207 10208
10135 10137 10139 10141 10143 10145 10147 10149 10151 10153 10155 10157 10158 10160 10161 10163 10164 10166 10167 10169 10170 10172 10173 10175 10176 10178 10179 10180 10181 10183 10184 10184 10185 10186 10187 10187 10188 10188 10188 10188 10189 10190 10191 10191 10192 10193 10193 10193 10194 10194 10195 10195 10196 10197 10199 10199 10200 10200 10200 10201 10201 10202 10202 10202 10203 10203 10203 10204 10204 10205 10205 10205 10205 10205 10205 10205 10205 10205 10205 10205 10205 10205 10205 10205 10205
10132 10134 10136 10138 10140 10142 10144 10146 10148 10150 10152 10154 10155 10157 10158 10160 10161 10163 10164 10166 10168 10169 10170 10172 10173 10175 10176 10177 10178 10179 10180 10181 10182 10183 10183 10184 10184 10184 10185 10185 10186 10186 10188 10188 10189 10189 10190 10190 10191 10191 10192 10193 10193 10195 10196 10197 10197 10197 10198 10198 10199 10199 10200 10200 10200 10201 10201 10202 10202 10203 10203 10204 10203 10203 10203 10203 10203 10203 10203 10203 10203 10203 10203 10203 10203
10130 10132 10134 10136 10138 10140 10141 10143 10145 10147 10149 10151 10152 10154 10156 10157 10159 10160 10162 10163 10165 10166 10167 10169 10170 10171 10173 10174 10175 10176 10177 10178 10179 10180 10180 10180 10181 10181 10181 10182 10182 10183 10184 10185 10186 10186 10187 10187 10188 10189 10189 10190 10191 10192 10193 10194 10195 10195 10195 10195 10196 10196 10197 10198 10198 10199 10199 10199 10200 10201 10202 10202 10202 10202 10202 10202 10201 10201 10201 10201 10201 10201 10201 10201 10201
10128 10130 10132 10134 10135 10137 10139 10140 10142 10144 10145 10147 10149 10151 10152 10154 10156 10157 10158 10160 10161 10163 10164 10165 10167 10168 10169 10170 10172 10173 10174 10175 10176 10176 10176 10176 10177 10177 10178 10178 10178 10179 10181 10182 10182 10183 10183 10184 10185 10186 10186 10187 10188 10189 10190 10191 10192 10192 10193 10193 10193 10194 10194 10195 10196 10197 10197 10197 10198 10199 10200 10200 10200 10200 10200 10200 10200 10200 10200 10199 10199 10199 10199 10199 10199
10125 10127 10129 10131 10132 10134 10135 10137 10138 10140 10142 10143 10145 10147 10149 10150 10152 10153 10155 10156 10158 10159 10160 10162 10163 10164 10165 10166 10168 10169 10170 10171 10171 10171 10171 10172 10173 10174 10174 10174 10174 10176 10177 10178 10179 10179 10180 10181 10181 10182 10183 10184 10185 10186 10187 10188 10189 10190 10190 10191 10191 10191 10192 10193 10194 10194 10195 10195 10196 10197 10197 10198 10198 10199 10199 10199 10199 10199 10199 10198 10198 10198 10198 10198 10198